Regional Weather Roundup
Issued by NWS

Home | Current Version | Previous Version | Text Only | Print | Product List | Glossary Off
Versions: 1 2 3 4 5 6 7 8 9 10 11 12 13 14 15 16 17 18 19 20 21 22 23 24 25 26 27 28 29 30 31 32 33 34 35 36 37 38 39 40 41 42 43 44 45 46 47 48 49 50

000
ASUS43 KOAX 051302
RWRNE

WEATHER ROUNDUP FOR NEBRASKA
NATIONAL WEATHER SERVICE OMAHA NE
700 AM CST MON DEC 05 2016

NOTES: SATELLITE DATA IS BEING USED TO AUGMENT CLOUD COVER ABOVE
       12000 FEET.
       "FAIR" INDICATES FEW OR NO CLOUDS BELOW 12,000 FEET WITH NO
       SIGNIFICANT WEATHER AND/OR OBSTRUCTIONS TO VISIBILITY.

  * THESE STATIONS DO NOT REPORT WEATHER SUCH AS RAIN...SNOW OR FOG.

NEZ001>004-019>022-054>056-051400-
NEBRASKA PANHANDLE

CITY           SKY/WX    TMP DP  RH WIND       PRES   REMARKS
SCOTTSBLUFF    CLOUDY    45  22  40 W9        29.54S
ALLIANCE       CLOUDY    44  21  40 W9        29.53S
CHADRON        CLOUDY    42  24  49 W13       29.49F
SIDNEY         CLOUDY    35  18  49 W9        29.56F WCI  28
$$

NEZ057>060-069>072-079>082-051400-
SOUTHWEST NEBRASKA

CITY           SKY/WX    TMP DP  RH WIND       PRES   REMARKS
NORTH PLATTE   CLOUDY    33  21  61 E9        29.55F WCI  25
IMPERIAL       CLOUDY    30  17  58 S3        29.57S
LEXINGTON      CLOUDY    33  23  66 SE7       29.61F WCI  27
MCCOOK         CLOUDY    28  20  71 SE3       29.60F
OGALLALA       CLOUDY    37  21  53 W6        29.55S WCI  32
$$

NEZ005>010-023>029-035>040-094-051400-
NORTH CENTRAL NEBRASKA

CITY           SKY/WX    TMP DP  RH WIND       PRES   REMARKS
VALENTINE      CLOUDY    39  20  46 SW10      29.50F WCI  32
AINSWORTH      MOCLDY    39  22  50 SW10      29.52F WCI  32
BROKEN BOW     CLOUDY    35  23  61 S3        29.58F
ORD            CLOUDY    37  22  54 S8        29.60F WCI  31
THEDFORD       CLOUDY    52  25  35 W9G22     29.55F
$$

NEZ041-046>049-061>064-073>077-083>087-051400-
SOUTH CENTRAL NEBRASKA

CITY           SKY/WX    TMP DP  RH WIND       PRES   REMARKS
GRAND ISLAND   CLOUDY    37  27  67 S12       29.66F WCI  29
AURORA         CLOUDY    36  29  76 S13       29.68F WCI  27
HASTINGS       PTCLDY    36  26  67 S9        29.68F WCI  29
HEBRON         PTCLDY    36  28  72 S8        29.74F WCI  29
HOLDREGE       CLOUDY    32  25  74 S8        29.63F WCI  25
KEARNEY *      PTCLDY    34  25  69 S9        29.64F WCI  26
YORK           PTCLDY    34  28  80 S10       29.70F WCI  26
$$

NEZ011>018-030>034-042>045-051400-
NORTHEAST NEBRASKA

CITY           SKY/WX    TMP DP  RH WIND       PRES   REMARKS
NORFOLK        CLOUDY    36  26  67 S14G26    29.64F WCI  27
ALBION         CLOUDY    35  27  70 SE9       29.64F WCI  28
BLAIR          CLOUDY    35  31  87 S12       29.74F WCI  27
FREMONT        PTCLDY    33  29  86 SE5       29.73F WCI  29
TEKAMAH        CLOUDY    33  30  88 SE9       29.74F WCI  25
WAYNE          CLOUDY    38  30  72 S17       29.65F WCI  28
$$

NEZ050>053-065>068-078-088>093-051400-
SOUTHEAST NEBRASKA

CITY           SKY/WX    TMP DP  RH WIND       PRES   REMARKS
LINCOLN        PTCLDY    34  28  79 S12       29.75F WCI  25
OMAHA EPPLEY   CLOUDY    35  30  82 SE14      29.78F WCI  26
BEATRICE       CLEAR     34  29  83 S9        29.78S WCI  27
FALLS CITY     CLEAR     34  31  88 S12       29.84F WCI  25
NEBRASKA CITY  CLEAR     35  29  80 S14       29.80S WCI  25
PLATTSMOUTH    PTCLDY    33  28  82 SE10      29.78S WCI  25
$$

NEZ044-045-051>053-067-051400-
OMAHA AREA

CITY           SKY/WX    TMP DP  RH WIND       PRES   REMARKS
OMAHA EPPLEY   CLOUDY    35  30  82 SE14      29.78F WCI  26
BLAIR          CLOUDY    35  31  87 S12       29.74F WCI  27
FREMONT        PTCLDY    33  29  86 SE5       29.73F WCI  29
MILLARD        PTCLDY    35  31  87 E3        29.77F
OFFUTT AFB     MOCLDY    32  32 100 SE6       29.78S WCI  27
PLATTSMOUTH    PTCLDY    33  28  82 SE10      29.78S WCI  25
WAHOO          FAIR      33  28  81 S9        29.74S WCI  26
$$




USA.gov is the U.S. government's official web portal to all federal, state and local government web resources and services.